DLH5CO EDDM-EDDV

Flight info

Callsign DLH5CO
Flight time 0h 50m
Altitude 30000
Route INPUD2N/26R INPUD Y102 UPALA M726 LASTO M852 BIRKA/N0373F240 T803 GITEX GITEX1Z
Aircraft A320/M-SDE3FGHIRWY/LB1

Departure

Time 2026-05-07 12:42
Airport Munich Airport (EDDM)

Arrival

Time 2026-05-07 13:32
Airport Hannover Airport (EDDV)
Time Latitude Longitude Altitude Speed Heading
2026-05-07 12:28 48.35508 11.80011 1485 ft 0 kts 263°
2026-05-07 12:32 48.35508 11.80013 1485 ft 2 kts 264°
2026-05-07 12:32 48.35510 11.80038 1477 ft 2 kts 266°
2026-05-07 12:33 48.35512 11.80087 1476 ft 2 kts 270°
2026-05-07 12:33 48.35512 11.80112 1483 ft 2 kts 278°
2026-05-07 12:33 48.35508 11.80137 1483 ft 2 kts 301°
2026-05-07 12:34 48.35497 11.80154 1475 ft 2 kts 348°
2026-05-07 12:34 48.35490 11.80156 1474 ft 0 kts 353°
2026-05-07 12:35 48.35510 11.80152 1481 ft 6 kts 353°
2026-05-07 12:36 48.35569 11.80142 1479 ft 11 kts 353°
2026-05-07 12:36 48.35648 11.80118 1481 ft 12 kts 336°
2026-05-07 12:36 48.35735 11.80076 1484 ft 14 kts 352°
2026-05-07 12:36 48.35824 11.80053 1485 ft 12 kts 336°
2026-05-07 12:37 48.35847 11.79934 1471 ft 13 kts 264°
2026-05-07 12:37 48.35836 11.79787 1480 ft 15 kts 263°
2026-05-07 12:37 48.35824 11.79629 1485 ft 15 kts 263°
2026-05-07 12:37 48.35842 11.79529 1479 ft 9 kts 331°
2026-05-07 12:38 48.35909 11.79511 1476 ft 10 kts 353°
2026-05-07 12:38 48.35988 11.79497 1483 ft 12 kts 353°
2026-05-07 12:38 48.36080 11.79482 1480 ft 14 kts 353°
2026-05-07 12:38 48.36178 11.79469 1474 ft 14 kts
2026-05-07 12:39 48.36222 11.79587 1471 ft 15 kts 83°
2026-05-07 12:39 48.36236 11.79760 1475 ft 18 kts 83°
2026-05-07 12:39 48.36252 11.79967 1476 ft 22 kts 83°
2026-05-07 12:39 48.36270 11.80201 1485 ft 22 kts 84°
2026-05-07 12:40 48.36286 11.80414 1485 ft 16 kts 84°
2026-05-07 12:40 48.36318 11.80513 1482 ft 10 kts 22°
2026-05-07 12:40 48.36371 11.80466 1478 ft 10 kts 296°
2026-05-07 12:40 48.36401 11.80361 1481 ft 11 kts 293°
2026-05-07 12:41 48.36434 11.80248 1480 ft 14 kts 293°
2026-05-07 12:41 48.36479 11.80082 1474 ft 20 kts 290°
2026-05-07 12:41 48.36507 11.79838 1485 ft 33 kts 270°
2026-05-07 12:41 48.36458 11.79125 1486 ft 103 kts 263°
2026-05-07 12:42 48.36355 11.77776 1580 ft 148 kts 266°
2026-05-07 12:42 48.36259 11.76247 2335 ft 147 kts 267°
2026-05-07 12:42 48.36157 11.74691 2976 ft 156 kts 265°
2026-05-07 12:42 48.36036 11.72972 3414 ft 173 kts 265°
2026-05-07 12:43 48.35899 11.71089 3813 ft 189 kts 265°
2026-05-07 12:43 48.35797 11.69744 4159 ft 200 kts 264°
2026-05-07 12:43 48.35747 11.67593 4808 ft 212 kts 284°
2026-05-07 12:43 48.36576 11.65775 5591 ft 221 kts 324°
2026-05-07 12:44 48.38048 11.64883 6269 ft 239 kts 342°
2026-05-07 12:44 48.39741 11.64410 6868 ft 257 kts 347°
2026-05-07 12:44 48.41563 11.64015 7521 ft 270 kts 348°
2026-05-07 12:44 48.43442 11.63599 8408 ft 274 kts 346°
2026-05-07 12:45 48.45276 11.62772 9253 ft 278 kts 338°
2026-05-07 12:45 48.47119 11.61820 10132 ft 282 kts 338°
2026-05-07 12:45 48.49030 11.60806 10572 ft 303 kts 337°
2026-05-07 12:45 48.51084 11.59702 10980 ft 321 kts 337°
2026-05-07 12:46 48.53215 11.58564 11711 ft 328 kts 338°
2026-05-07 12:46 48.55382 11.57414 12518 ft 332 kts 338°
2026-05-07 12:46 48.57579 11.56258 13330 ft 336 kts 338°
2026-05-07 12:46 48.59802 11.55092 14085 ft 340 kts 338°
2026-05-07 12:47 48.62049 11.53912 14766 ft 344 kts 338°
2026-05-07 12:47 48.64320 11.52715 15456 ft 348 kts 338°
2026-05-07 12:47 48.66615 11.51502 16140 ft 351 kts 338°
2026-05-07 12:47 48.68938 11.50272 16817 ft 355 kts 338°
2026-05-07 12:48 48.71283 11.49028 17488 ft 360 kts 338°
2026-05-07 12:48 48.73659 11.47768 18160 ft 364 kts 337°
2026-05-07 12:48 48.76061 11.46495 18743 ft 367 kts 337°
2026-05-07 12:48 48.78483 11.45211 19337 ft 370 kts 338°
2026-05-07 12:49 48.80923 11.43914 19940 ft 373 kts 338°
2026-05-07 12:49 48.83379 11.42605 20545 ft 375 kts 338°
2026-05-07 12:49 48.85850 11.41286 21138 ft 378 kts 338°
2026-05-07 12:49 48.88340 11.39953 21717 ft 380 kts 338°
2026-05-07 12:50 48.90840 11.38611 22285 ft 383 kts 338°
2026-05-07 12:50 48.93360 11.37263 22856 ft 385 kts 338°
2026-05-07 12:50 48.95903 11.35907 23412 ft 388 kts 338°
2026-05-07 12:50 48.98458 11.34544 23892 ft 391 kts 338°
2026-05-07 12:51 49.01029 11.33169 24345 ft 393 kts 338°
2026-05-07 12:51 49.03613 11.31783 24804 ft 395 kts 338°
2026-05-07 12:51 49.06207 11.30387 25251 ft 397 kts 338°
2026-05-07 12:51 49.08817 11.28979 25689 ft 399 kts 338°
2026-05-07 12:52 49.11443 11.27558 26116 ft 401 kts 338°
2026-05-07 12:52 49.14078 11.26131 26543 ft 403 kts 338°
2026-05-07 12:52 49.16730 11.24695 26964 ft 405 kts 338°
2026-05-07 12:52 49.19405 11.23285 27390 ft 408 kts 341°
2026-05-07 12:53 49.22198 11.22381 27799 ft 413 kts 351°
2026-05-07 12:53 49.25079 11.22174 28190 ft 417 kts 358°
2026-05-07 12:53 49.27949 11.22208 28589 ft 419 kts 358°
2026-05-07 12:53 49.30910 11.22235 28992 ft 421 kts 358°
2026-05-07 12:54 49.33847 11.22255 29381 ft 423 kts 358°
2026-05-07 12:54 49.36805 11.22277 29749 ft 426 kts 358°
2026-05-07 12:54 49.39772 11.22303 30105 ft 428 kts 358°
2026-05-07 12:54 49.42721 11.22329 30397 ft 431 kts 358°
2026-05-07 12:55 49.45770 11.22352 30672 ft 434 kts 358°
2026-05-07 12:55 49.48763 11.22372 30932 ft 437 kts 358°
2026-05-07 12:55 49.51815 11.22390 31191 ft 440 kts 358°
2026-05-07 12:55 49.54889 11.22410 31450 ft 443 kts 359°
2026-05-07 12:56 49.58019 11.22430 31733 ft 445 kts 359°
2026-05-07 12:56 49.61122 11.22441 32091 ft 445 kts 358°
2026-05-07 12:56 49.64178 11.22449 32428 ft 446 kts 358°
2026-05-07 12:56 49.67284 11.22457 32769 ft 447 kts 358°
2026-05-07 12:57 49.70438 11.22461 33107 ft 448 kts 358°
2026-05-07 12:57 49.73517 11.22464 33426 ft 449 kts 358°
2026-05-07 12:57 49.76646 11.22470 33758 ft 450 kts 358°
2026-05-07 12:57 49.79828 11.22477 33977 ft 453 kts 358°
2026-05-07 12:58 49.86156 11.22510 34005 ft 460 kts 359°
2026-05-07 12:58 49.92570 11.22558 34001 ft 461 kts 359°
2026-05-07 12:59 49.98990 11.22599 33998 ft 461 kts 359°
2026-05-07 12:59 50.05409 11.22632 33994 ft 461 kts 359°
2026-05-07 13:00 50.11833 11.22665 33993 ft 461 kts 359°
2026-05-07 13:00 50.18247 11.22699 33989 ft 461 kts 359°
2026-05-07 13:01 50.24671 11.22738 33991 ft 461 kts 359°
2026-05-07 13:01 50.31082 11.22785 33991 ft 461 kts 359°
2026-05-07 13:02 50.37490 11.22615 33994 ft 460 kts 353°
2026-05-07 13:02 50.43863 11.21648 33997 ft 460 kts 353°
2026-05-07 13:03 50.50227 11.20690 34000 ft 460 kts 353°
2026-05-07 13:03 50.56601 11.19726 34007 ft 460 kts 353°
2026-05-07 13:04 50.62964 11.18757 34009 ft 460 kts 353°
2026-05-07 13:04 50.69334 11.17782 34017 ft 460 kts 353°
2026-05-07 13:05 50.75698 11.16810 34024 ft 459 kts 353°
2026-05-07 13:05 50.82063 11.15833 34023 ft 459 kts 353°
2026-05-07 13:06 50.88436 11.14851 33653 ft 460 kts 354°
2026-05-07 13:06 50.91612 11.14360 33156 ft 458 kts 354°
2026-05-07 13:06 50.94788 11.13872 32673 ft 457 kts 355°
2026-05-07 13:07 50.97950 11.13388 32198 ft 456 kts 355°
2026-05-07 13:07 51.01108 11.12903 31731 ft 455 kts 355°
2026-05-07 13:07 51.04256 11.12419 31272 ft 454 kts 355°
2026-05-07 13:07 51.07400 11.11932 30817 ft 454 kts 356°
2026-05-07 13:08 51.10537 11.11419 30371 ft 454 kts 353°
2026-05-07 13:08 51.13622 11.10330 29891 ft 455 kts 344°
2026-05-07 13:08 51.16573 11.08467 29374 ft 458 kts 337°
2026-05-07 13:08 51.19483 11.06380 28852 ft 460 kts 337°
2026-05-07 13:09 51.22408 11.04288 28353 ft 461 kts 337°
2026-05-07 13:09 51.25320 11.02212 27866 ft 458 kts 337°
2026-05-07 13:09 51.28240 11.00133 27372 ft 462 kts 337°
2026-05-07 13:09 51.31189 10.98033 26896 ft 465 kts 337°
2026-05-07 13:10 51.34136 10.95930 26419 ft 463 kts 337°
2026-05-07 13:10 51.37070 10.93827 25964 ft 460 kts 336°
2026-05-07 13:10 51.40013 10.91745 25506 ft 466 kts 338°
2026-05-07 13:10 51.43006 10.89740 25063 ft 466 kts 338°
2026-05-07 13:11 51.46013 10.87803 24629 ft 464 kts 339°
2026-05-07 13:11 51.49024 10.85899 24193 ft 469 kts 339°
2026-05-07 13:11 51.52067 10.83976 23761 ft 470 kts 339°
2026-05-07 13:11 51.55098 10.82043 23296 ft 468 kts 338°
2026-05-07 13:12 51.58107 10.80101 22804 ft 465 kts 338°
2026-05-07 13:12 51.61088 10.78154 22307 ft 461 kts 338°
2026-05-07 13:12 51.64052 10.76206 21828 ft 458 kts 338°
2026-05-07 13:12 51.66985 10.74272 21368 ft 455 kts 338°
2026-05-07 13:13 51.69910 10.72338 20889 ft 452 kts 338°
2026-05-07 13:13 51.72811 10.70422 20428 ft 450 kts 338°
2026-05-07 13:13 51.75698 10.68520 19983 ft 447 kts 338°
2026-05-07 13:13 51.78570 10.66627 19539 ft 445 kts 337°
2026-05-07 13:14 51.81424 10.64743 19101 ft 442 kts 337°
2026-05-07 13:14 51.84266 10.62862 18674 ft 440 kts 337°
2026-05-07 13:14 51.87091 10.60985 18233 ft 438 kts 337°
2026-05-07 13:14 51.89898 10.59110 17747 ft 435 kts 336°
2026-05-07 13:15 51.92494 10.56677 17259 ft 430 kts 321°
2026-05-07 13:15 51.94575 10.53233 16786 ft 426 kts 306°
2026-05-07 13:15 51.95979 10.49048 16324 ft 423 kts 291°
2026-05-07 13:15 51.97010 10.44595 15864 ft 420 kts 290°
2026-05-07 13:16 51.98019 10.40193 15420 ft 412 kts 290°
2026-05-07 13:16 51.99008 10.35877 14971 ft 403 kts 290°
2026-05-07 13:16 51.99971 10.31661 14527 ft 394 kts 290°
2026-05-07 13:16 52.00913 10.27534 14091 ft 386 kts 290°
2026-05-07 13:17 52.01839 10.23482 13651 ft 379 kts 290°
2026-05-07 13:17 52.02745 10.19514 13246 ft 370 kts 290°
2026-05-07 13:17 52.03628 10.15634 12848 ft 362 kts 290°
2026-05-07 13:17 52.04486 10.11844 12530 ft 353 kts 290°
2026-05-07 13:18 52.05321 10.08153 12220 ft 343 kts 291°
2026-05-07 13:18 52.06136 10.04562 11912 ft 335 kts 291°
2026-05-07 13:18 52.06931 10.01048 11607 ft 327 kts 291°
2026-05-07 13:18 52.07706 9.97610 11301 ft 321 kts 291°
2026-05-07 13:19 52.08465 9.94239 11012 ft 315 kts 291°
2026-05-07 13:19 52.09210 9.90932 10764 ft 308 kts 291°
2026-05-07 13:19 52.09937 9.87702 10522 ft 301 kts 291°
2026-05-07 13:19 52.10648 9.84527 10278 ft 296 kts 291°
2026-05-07 13:20 52.11344 9.81421 10050 ft 289 kts 291°
2026-05-07 13:20 52.12028 9.78363 9717 ft 286 kts 291°
2026-05-07 13:20 52.12705 9.75332 9340 ft 284 kts 291°
2026-05-07 13:20 52.13376 9.72311 8959 ft 283 kts 291°
2026-05-07 13:21 52.14046 9.69314 8580 ft 281 kts 293°
2026-05-07 13:21 52.15069 9.66658 8190 ft 276 kts 311°
2026-05-07 13:21 52.16343 9.64322 7788 ft 275 kts 314°
2026-05-07 13:21 52.17632 9.62031 7476 ft 274 kts 314°
2026-05-07 13:22 52.18928 9.59747 7220 ft 274 kts 314°
2026-05-07 13:22 52.20209 9.57463 6975 ft 273 kts 314°
2026-05-07 13:22 52.21489 9.55176 6727 ft 272 kts 314°
2026-05-07 13:22 52.22763 9.52895 6478 ft 271 kts 314°
2026-05-07 13:23 52.24031 9.50625 6220 ft 271 kts 314°
2026-05-07 13:23 52.25302 9.48357 5950 ft 270 kts 314°
2026-05-07 13:23 52.26136 9.46870 5783 ft 267 kts 314°
2026-05-07 13:23 52.27770 9.43924 5437 ft 257 kts 314°
2026-05-07 13:24 52.28554 9.42501 5268 ft 253 kts 314°
2026-05-07 13:24 52.29714 9.40385 5016 ft 248 kts 315°
2026-05-07 13:24 52.31014 9.38633 4756 ft 240 kts 331°
2026-05-07 13:24 52.32443 9.37288 4487 ft 234 kts 334°
2026-05-07 13:25 52.33862 9.36019 4232 ft 231 kts 334°
2026-05-07 13:25 52.35274 9.34770 3971 ft 230 kts 334°
2026-05-07 13:25 52.36683 9.33528 3705 ft 229 kts 334°
2026-05-07 13:25 52.38080 9.32301 3547 ft 228 kts 334°
2026-05-07 13:26 52.39483 9.31072 3418 ft 228 kts 334°
2026-05-07 13:26 52.40889 9.29875 3291 ft 227 kts 340°
2026-05-07 13:26 52.42412 9.29550 3161 ft 221 kts
2026-05-07 13:26 52.43878 9.30230 3055 ft 219 kts 28°
2026-05-07 13:27 52.45094 9.31681 3010 ft 217 kts 47°
2026-05-07 13:27 52.45935 9.33729 3009 ft 217 kts 66°
2026-05-07 13:27 52.46296 9.36124 3009 ft 218 kts 86°
2026-05-07 13:27 52.46256 9.38556 3008 ft 206 kts 91°
2026-05-07 13:28 52.46199 9.40833 3005 ft 193 kts 91°
2026-05-07 13:28 52.46147 9.42927 3026 ft 177 kts 91°
2026-05-07 13:28 52.46098 9.44903 2929 ft 171 kts 91°
2026-05-07 13:28 52.46049 9.46833 2750 ft 169 kts 91°
2026-05-07 13:29 52.46000 9.48739 2534 ft 167 kts 91°
2026-05-07 13:29 52.45951 9.50630 2312 ft 166 kts 91°
2026-05-07 13:29 52.45903 9.52501 2089 ft 160 kts 91°
2026-05-07 13:29 52.45857 9.54244 1890 ft 145 kts 91°
2026-05-07 13:30 52.45818 9.55737 1696 ft 135 kts 91°
2026-05-07 13:30 52.45778 9.57240 1509 ft 130 kts 91°
2026-05-07 13:30 52.45739 9.58715 1334 ft 129 kts 91°
2026-05-07 13:30 52.45699 9.60179 1128 ft 129 kts 91°
2026-05-07 13:31 52.45655 9.61654 940 ft 129 kts 90°
2026-05-07 13:31 52.45618 9.63120 785 ft 128 kts 90°
2026-05-07 13:31 52.45581 9.64506 620 ft 131 kts 91°
2026-05-07 13:31 52.45540 9.66009 426 ft 132 kts 91°
2026-05-07 13:32 52.45503 9.67511 248 ft 131 kts 91°
2026-05-07 13:32 52.45466 9.68902 186 ft 103 kts 93°
2026-05-07 13:32 52.45439 9.69807 188 ft 60 kts 92°
2026-05-07 13:32 52.45423 9.70389 188 ft 37 kts 93°
2026-05-07 13:33 52.45423 9.70625 193 ft 12 kts 72°
2026-05-07 13:33 52.45479 9.70669 201 ft 8 kts
2026-05-07 13:33 52.45527 9.70673 191 ft 6 kts
2026-05-07 13:33 52.45575 9.70642 198 ft 11 kts 299°
2026-05-07 13:34 52.45585 9.70486 199 ft 17 kts 272°
2026-05-07 13:34 52.45599 9.69993 191 ft 26 kts 272°
2026-05-07 13:34 52.45607 9.69684 193 ft 28 kts 272°
2026-05-07 13:35 52.45616 9.69367 191 ft 25 kts 272°
2026-05-07 13:35 52.45627 9.69182 191 ft 12 kts 295°
2026-05-07 13:35 52.45699 9.69149 191 ft 11 kts
2026-05-07 13:35 52.45775 9.69203 194 ft 12 kts 38°
2026-05-07 13:36 52.45826 9.69290 202 ft 8 kts 47°
2026-05-07 13:36 52.45842 9.69318 200 ft 1 kts 47°
2026-05-07 13:36 52.45844 9.69321 200 ft 0 kts 47°